Year,Month,Day,Hour,Minute,Value (Times are PST for temperature in C)
2014,06,02,00,00,12.00
2014,06,02,00,01,11.90
2014,06,02,00,02,11.90
2014,06,02,00,03,11.90
2014,06,02,00,04,11.80
2014,06,02,00,05,11.80
2014,06,02,00,06,11.80
2014,06,02,00,07,11.80
2014,06,02,00,08,11.80
2014,06,02,00,09,11.80
2014,06,02,00,10,11.80
2014,06,02,00,11,11.80
2014,06,02,00,12,11.80
2014,06,02,00,13,11.90
2014,06,02,00,14,11.90
2014,06,02,00,15,11.90
2014,06,02,00,16,12.00
2014,06,02,00,17,12.00
2014,06,02,00,18,12.00
2014,06,02,00,19,12.00
2014,06,02,00,20,12.00
2014,06,02,00,21,12.00
2014,06,02,00,22,12.00
2014,06,02,00,23,12.00
2014,06,02,00,24,11.90
2014,06,02,00,25,11.90
2014,06,02,00,26,11.90
2014,06,02,00,27,11.90
2014,06,02,00,28,11.90
2014,06,02,00,29,11.90
2014,06,02,00,30,11.90
2014,06,02,00,31,11.90
2014,06,02,00,32,11.90
2014,06,02,00,33,11.90
2014,06,02,00,34,11.90
2014,06,02,00,35,11.90
2014,06,02,00,36,11.90
2014,06,02,00,37,11.90
2014,06,02,00,38,11.90
2014,06,02,00,39,11.90
2014,06,02,00,40,11.80
2014,06,02,00,41,11.80
2014,06,02,00,42,11.80
2014,06,02,00,43,11.80
2014,06,02,00,44,11.80
2014,06,02,00,45,11.80
2014,06,02,00,46,11.80
2014,06,02,00,47,11.80
2014,06,02,00,48,11.70
2014,06,02,00,49,11.70
2014,06,02,00,50,11.70
2014,06,02,00,51,11.80
2014,06,02,00,52,11.80
2014,06,02,00,53,11.80
2014,06,02,00,54,11.80
2014,06,02,00,55,11.80
2014,06,02,00,56,11.80
2014,06,02,00,57,11.80
2014,06,02,00,58,11.80
2014,06,02,00,59,11.80
2014,06,02,01,00,11.80
2014,06,02,01,01,11.70
2014,06,02,01,02,11.70
2014,06,02,01,03,11.70
2014,06,02,01,04,11.70
2014,06,02,01,05,11.70
2014,06,02,01,06,11.70
2014,06,02,01,07,11.70
2014,06,02,01,08,11.70
2014,06,02,01,09,11.60
2014,06,02,01,10,11.60
2014,06,02,01,11,11.60
2014,06,02,01,12,11.60
2014,06,02,01,13,11.50
2014,06,02,01,14,11.50
2014,06,02,01,15,11.50
2014,06,02,01,16,11.50
2014,06,02,01,17,11.40
2014,06,02,01,18,11.40
2014,06,02,01,19,11.40
2014,06,02,01,20,11.40
2014,06,02,01,21,11.30
2014,06,02,01,22,11.30
2014,06,02,01,23,11.30
2014,06,02,01,24,11.30
2014,06,02,01,25,11.30
2014,06,02,01,26,11.30
2014,06,02,01,27,11.30
2014,06,02,01,28,11.20
2014,06,02,01,29,11.20
2014,06,02,01,30,11.20
2014,06,02,01,31,11.20
2014,06,02,01,32,11.20
2014,06,02,01,33,11.20
2014,06,02,01,34,11.10
2014,06,02,01,35,11.10
2014,06,02,01,36,11.10
2014,06,02,01,37,11.10
2014,06,02,01,38,11.00
2014,06,02,01,39,11.00
2014,06,02,01,40,11.00
2014,06,02,01,41,10.90
2014,06,02,01,42,10.90
2014,06,02,01,43,10.90
2014,06,02,01,44,10.90
2014,06,02,01,45,10.80
2014,06,02,01,46,10.80
2014,06,02,01,47,10.80
2014,06,02,01,48,10.80
2014,06,02,01,49,10.70
2014,06,02,01,50,10.70
2014,06,02,01,51,10.70
2014,06,02,01,52,10.70
2014,06,02,01,53,10.60
2014,06,02,01,54,10.60
2014,06,02,01,55,10.60
2014,06,02,01,56,10.50
2014,06,02,01,57,10.50
2014,06,02,01,58,10.50
2014,06,02,01,59,10.40
2014,06,02,02,00,10.40
2014,06,02,02,01,10.30
2014,06,02,02,02,10.30
2014,06,02,02,03,10.30
2014,06,02,02,04,10.20
2014,06,02,02,05,10.20
2014,06,02,02,06,10.20
2014,06,02,02,07,10.20
2014,06,02,02,08,10.10
2014,06,02,02,09,10.10
2014,06,02,02,10,10.10
2014,06,02,02,11,10.10
2014,06,02,02,12,10.00
2014,06,02,02,13,10.00
2014,06,02,02,14,9.90
2014,06,02,02,15,9.90
2014,06,02,02,16,9.90
2014,06,02,02,17,9.80
2014,06,02,02,18,9.80
2014,06,02,02,19,9.80
2014,06,02,02,20,9.80
2014,06,02,02,21,9.80
2014,06,02,02,22,9.70
2014,06,02,02,23,9.70
2014,06,02,02,24,9.70
2014,06,02,02,25,9.70
2014,06,02,02,26,9.70
2014,06,02,02,27,9.70
2014,06,02,02,28,9.70
2014,06,02,02,29,9.60
2014,06,02,02,30,9.60
2014,06,02,02,31,9.60
2014,06,02,02,32,9.60
2014,06,02,02,33,9.60
2014,06,02,02,34,9.60
2014,06,02,02,35,9.60
2014,06,02,02,36,9.50
2014,06,02,02,37,9.50
2014,06,02,02,38,9.50
2014,06,02,02,39,9.50
2014,06,02,02,40,9.50
2014,06,02,02,41,9.50
2014,06,02,02,42,9.50
2014,06,02,02,43,9.50
2014,06,02,02,44,9.50
2014,06,02,02,45,9.50
2014,06,02,02,46,9.50
2014,06,02,02,47,9.50
2014,06,02,02,48,9.50
2014,06,02,02,49,9.50
2014,06,02,02,50,9.50
2014,06,02,02,51,9.50
2014,06,02,02,52,9.50
2014,06,02,02,53,9.50
2014,06,02,02,54,9.50
2014,06,02,02,55,9.50
2014,06,02,02,56,9.50
2014,06,02,02,57,9.50
2014,06,02,02,58,9.50
2014,06,02,02,59,9.50
2014,06,02,03,00,9.50
2014,06,02,03,01,9.50
2014,06,02,03,02,9.50
2014,06,02,03,03,9.50
2014,06,02,03,04,9.50
2014,06,02,03,05,9.50
2014,06,02,03,06,9.50
2014,06,02,03,07,9.50
2014,06,02,03,08,9.50
2014,06,02,03,09,9.40
2014,06,02,03,10,9.40
2014,06,02,03,11,9.40
2014,06,02,03,12,9.40
2014,06,02,03,13,9.50
2014,06,02,03,14,9.50
2014,06,02,03,15,9.50
2014,06,02,03,16,9.60
2014,06,02,03,17,9.60
2014,06,02,03,18,9.60
2014,06,02,03,19,9.60
2014,06,02,03,20,9.60
2014,06,02,03,21,9.50
2014,06,02,03,22,9.50
2014,06,02,03,23,9.60
2014,06,02,03,24,9.60
2014,06,02,03,25,9.50
2014,06,02,03,26,9.50
2014,06,02,03,27,9.50
2014,06,02,03,28,9.50
2014,06,02,03,29,9.50
2014,06,02,03,30,9.50
2014,06,02,03,31,9.50
2014,06,02,03,32,9.50
2014,06,02,03,33,9.50
2014,06,02,03,34,9.50
2014,06,02,03,35,9.50
2014,06,02,03,36,9.50
2014,06,02,03,37,9.50
2014,06,02,03,38,9.50
2014,06,02,03,39,9.50
2014,06,02,03,40,9.50
2014,06,02,03,41,9.50
2014,06,02,03,42,9.50
2014,06,02,03,43,9.50
2014,06,02,03,44,9.60
2014,06,02,03,45,9.60
2014,06,02,03,46,9.60
2014,06,02,03,47,9.60
2014,06,02,03,48,9.60
2014,06,02,03,49,9.60
2014,06,02,03,50,9.60
2014,06,02,03,51,9.60
2014,06,02,03,52,9.60
2014,06,02,03,53,9.60
2014,06,02,03,54,9.60
2014,06,02,03,55,9.70
2014,06,02,03,56,9.70
2014,06,02,03,57,9.70
2014,06,02,03,58,9.70
2014,06,02,03,59,9.70
2014,06,02,04,00,9.70
2014,06,02,04,01,9.70
2014,06,02,04,02,9.70
2014,06,02,04,03,9.70
2014,06,02,04,04,9.70
2014,06,02,04,05,9.70
2014,06,02,04,06,9.80
2014,06,02,04,07,9.80
2014,06,02,04,08,9.80
2014,06,02,04,09,9.80
2014,06,02,04,10,9.70
2014,06,02,04,11,9.70
2014,06,02,04,12,9.70
2014,06,02,04,13,9.70
2014,06,02,04,14,9.70
2014,06,02,04,15,9.70
2014,06,02,04,16,9.70
2014,06,02,04,17,9.70
2014,06,02,04,18,9.70
2014,06,02,04,19,9.60
2014,06,02,04,20,9.60
2014,06,02,04,21,9.60
2014,06,02,04,22,9.60
2014,06,02,04,23,9.60
2014,06,02,04,24,9.60
2014,06,02,04,25,9.60
2014,06,02,04,26,9.60
2014,06,02,04,27,9.60
2014,06,02,04,28,9.60
2014,06,02,04,29,9.60
2014,06,02,04,30,9.60
2014,06,02,04,31,9.60
2014,06,02,04,32,9.60
2014,06,02,04,33,9.50
2014,06,02,04,34,9.50
2014,06,02,04,35,9.50
2014,06,02,04,36,9.50
2014,06,02,04,37,9.50
2014,06,02,04,38,9.50
2014,06,02,04,39,9.40
2014,06,02,04,40,9.40
2014,06,02,04,41,9.40
2014,06,02,04,42,9.40
2014,06,02,04,43,9.40
2014,06,02,04,44,9.40
2014,06,02,04,45,9.40
2014,06,02,04,46,9.40
2014,06,02,04,47,9.40
2014,06,02,04,48,9.30
2014,06,02,04,49,9.30
2014,06,02,04,50,9.40
2014,06,02,04,51,9.40
2014,06,02,04,52,9.40
2014,06,02,04,53,9.40
2014,06,02,04,54,9.40
2014,06,02,04,55,9.40
2014,06,02,04,56,9.40
2014,06,02,04,57,9.40
2014,06,02,04,58,9.40
2014,06,02,04,59,9.40
2014,06,02,05,00,9.40
2014,06,02,05,01,9.40
2014,06,02,05,02,9.40
2014,06,02,05,03,9.40
2014,06,02,05,04,9.40
2014,06,02,05,05,9.40
2014,06,02,05,06,9.40
2014,06,02,05,07,9.50
2014,06,02,05,08,9.50
2014,06,02,05,09,9.50
2014,06,02,05,10,9.50
2014,06,02,05,11,9.50
2014,06,02,05,12,9.50
2014,06,02,05,13,9.50
2014,06,02,05,14,9.50
2014,06,02,05,15,9.50
2014,06,02,05,16,9.50
2014,06,02,05,17,9.50
2014,06,02,05,18,9.50
2014,06,02,05,19,9.50
2014,06,02,05,20,9.50
2014,06,02,05,21,9.40
2014,06,02,05,22,9.50
2014,06,02,05,23,9.50
2014,06,02,05,24,9.50
2014,06,02,05,25,9.50
2014,06,02,05,26,9.60
2014,06,02,05,27,9.60
2014,06,02,05,28,9.60
2014,06,02,05,29,9.60
2014,06,02,05,30,9.60
2014,06,02,05,31,9.60
2014,06,02,05,32,9.60
2014,06,02,05,33,9.70
2014,06,02,05,34,9.70
2014,06,02,05,35,9.70
2014,06,02,05,36,9.70
2014,06,02,05,37,9.70
2014,06,02,05,38,9.70
2014,06,02,05,39,9.80
2014,06,02,05,40,9.80
2014,06,02,05,41,9.80
2014,06,02,05,42,9.80
2014,06,02,05,43,9.80
2014,06,02,05,44,9.80
2014,06,02,05,45,9.80
2014,06,02,05,46,9.80
2014,06,02,05,47,9.80
2014,06,02,05,48,9.80
2014,06,02,05,49,9.80
2014,06,02,05,50,9.90
2014,06,02,05,51,9.90
2014,06,02,05,52,9.90
2014,06,02,05,53,9.90
2014,06,02,05,54,9.90
2014,06,02,05,55,10.00
2014,06,02,05,56,10.00
2014,06,02,05,57,10.00
2014,06,02,05,58,10.10
2014,06,02,05,59,10.10
2014,06,02,06,00,10.10
2014,06,02,06,01,10.10
2014,06,02,06,02,10.20
2014,06,02,06,03,10.20
2014,06,02,06,04,10.20
2014,06,02,06,05,10.20
2014,06,02,06,06,10.30
2014,06,02,06,07,10.30
2014,06,02,06,08,10.30
2014,06,02,06,09,10.40
2014,06,02,06,10,10.40
2014,06,02,06,11,10.50
2014,06,02,06,12,10.50
2014,06,02,06,13,10.50
2014,06,02,06,14,10.60
2014,06,02,06,15,10.60
2014,06,02,06,16,10.60
2014,06,02,06,17,10.70
2014,06,02,06,18,10.70
2014,06,02,06,19,10.70
2014,06,02,06,20,10.80
2014,06,02,06,21,10.80
2014,06,02,06,22,10.80
2014,06,02,06,23,10.80
2014,06,02,06,24,10.80
2014,06,02,06,25,10.90
2014,06,02,06,26,10.90
2014,06,02,06,27,10.90
2014,06,02,06,28,10.90
2014,06,02,06,29,11.00
2014,06,02,06,30,11.00
2014,06,02,06,31,11.10
2014,06,02,06,32,11.10
2014,06,02,06,33,11.10
2014,06,02,06,34,11.20
2014,06,02,06,35,11.20
2014,06,02,06,36,11.20
2014,06,02,06,37,11.30
2014,06,02,06,38,11.30
2014,06,02,06,39,11.30
2014,06,02,06,40,11.30
2014,06,02,06,41,11.30
2014,06,02,06,42,11.40
2014,06,02,06,43,11.40
2014,06,02,06,44,11.50
2014,06,02,06,45,11.50
2014,06,02,06,46,11.50
2014,06,02,06,47,11.60
2014,06,02,06,48,11.60
2014,06,02,06,49,11.70
2014,06,02,06,50,11.70
2014,06,02,06,51,11.70
2014,06,02,06,52,11.80
2014,06,02,06,53,11.80
2014,06,02,06,54,11.80
2014,06,02,06,55,11.90
2014,06,02,06,56,11.90
2014,06,02,06,57,11.90
2014,06,02,06,58,12.00
2014,06,02,06,59,12.00
2014,06,02,07,00,12.00
2014,06,02,07,01,12.10
2014,06,02,07,02,12.10
2014,06,02,07,03,12.10
2014,06,02,07,04,12.10
2014,06,02,07,05,12.20
2014,06,02,07,06,12.20
2014,06,02,07,07,12.30
2014,06,02,07,08,12.30
2014,06,02,07,09,12.40
2014,06,02,07,10,12.50
2014,06,02,07,11,12.50
2014,06,02,07,12,12.60
2014,06,02,07,13,12.60
2014,06,02,07,14,12.70
2014,06,02,07,15,12.70
2014,06,02,07,16,12.80
2014,06,02,07,17,12.80
2014,06,02,07,18,12.90
2014,06,02,07,19,12.90
2014,06,02,07,20,12.90
2014,06,02,07,21,12.90
2014,06,02,07,22,13.00
2014,06,02,07,23,13.00
2014,06,02,07,24,13.00
2014,06,02,07,25,13.00
2014,06,02,07,26,13.00
2014,06,02,07,27,13.00
2014,06,02,07,28,13.00
2014,06,02,07,29,13.10
2014,06,02,07,30,13.10
2014,06,02,07,31,13.10
2014,06,02,07,32,13.20
2014,06,02,07,33,13.20
2014,06,02,07,34,13.30
2014,06,02,07,35,13.30
2014,06,02,07,36,13.30
2014,06,02,07,37,13.30
2014,06,02,07,38,13.30
2014,06,02,07,39,13.40
2014,06,02,07,40,13.40
2014,06,02,07,41,13.40
2014,06,02,07,42,13.50
2014,06,02,07,43,13.50
2014,06,02,07,44,13.60
2014,06,02,07,45,13.60
2014,06,02,07,46,13.60
2014,06,02,07,47,13.60
2014,06,02,07,48,13.60
2014,06,02,07,49,13.70
2014,06,02,07,50,13.70
2014,06,02,07,51,13.70
2014,06,02,07,52,13.80
2014,06,02,07,53,13.80
2014,06,02,07,54,13.90
2014,06,02,07,55,14.00
2014,06,02,07,56,14.00
2014,06,02,07,57,14.10
2014,06,02,07,58,14.10
2014,06,02,07,59,14.10
2014,06,02,08,00,14.20
2014,06,02,08,01,14.20
2014,06,02,08,02,14.20
2014,06,02,08,03,14.20
2014,06,02,08,04,14.20
2014,06,02,08,05,14.20
2014,06,02,08,06,14.20
2014,06,02,08,07,14.20
2014,06,02,08,08,14.20
2014,06,02,08,09,14.30
2014,06,02,08,10,14.40
2014,06,02,08,11,14.40
2014,06,02,08,12,14.50
2014,06,02,08,13,14.50
2014,06,02,08,14,14.60
2014,06,02,08,15,14.60
2014,06,02,08,16,14.60
2014,06,02,08,17,14.70
2014,06,02,08,18,14.70
2014,06,02,08,19,14.80
2014,06,02,08,20,14.90
2014,06,02,08,21,14.90
2014,06,02,08,22,14.90
2014,06,02,08,23,14.90
2014,06,02,08,24,14.80
2014,06,02,08,25,14.80
2014,06,02,08,26,14.80
2014,06,02,08,27,14.80
2014,06,02,08,28,14.80
2014,06,02,08,29,14.80
2014,06,02,08,30,14.80
2014,06,02,08,31,14.80
2014,06,02,08,32,14.80
2014,06,02,08,33,14.80
2014,06,02,08,34,14.80
2014,06,02,08,35,14.90
2014,06,02,08,36,14.90
2014,06,02,08,37,15.00
2014,06,02,08,38,15.00
2014,06,02,08,39,15.10
2014,06,02,08,40,15.10
2014,06,02,08,41,15.20
2014,06,02,08,42,15.30
2014,06,02,08,43,15.40
2014,06,02,08,44,15.40
2014,06,02,08,45,15.40
2014,06,02,08,46,15.50
2014,06,02,08,47,15.50
2014,06,02,08,48,15.60
2014,06,02,08,49,15.60
2014,06,02,08,50,15.60
2014,06,02,08,51,15.60
2014,06,02,08,52,15.70
2014,06,02,08,53,15.70
2014,06,02,08,54,15.70
2014,06,02,08,55,15.80
2014,06,02,08,56,15.80
2014,06,02,08,57,15.90
2014,06,02,08,58,16.00
2014,06,02,08,59,16.10
2014,06,02,09,00,16.20
2014,06,02,09,01,16.30
2014,06,02,09,02,16.30
2014,06,02,09,03,16.30
2014,06,02,09,04,16.30
2014,06,02,09,05,16.10
2014,06,02,09,06,16.00
2014,06,02,09,07,15.90
2014,06,02,09,08,15.80
2014,06,02,09,09,15.70
2014,06,02,09,10,15.70
2014,06,02,09,11,15.80
2014,06,02,09,12,15.80
2014,06,02,09,13,15.90
2014,06,02,09,14,15.90
2014,06,02,09,15,15.90
2014,06,02,09,16,15.90
2014,06,02,09,17,15.90
2014,06,02,09,18,15.90
2014,06,02,09,19,15.90
2014,06,02,09,20,15.90
2014,06,02,09,21,15.90
2014,06,02,09,22,15.90
2014,06,02,09,23,15.90
2014,06,02,09,24,15.80
2014,06,02,09,25,15.80
2014,06,02,09,26,15.80
2014,06,02,09,27,15.90
2014,06,02,09,28,15.90
2014,06,02,09,29,16.00
2014,06,02,09,30,16.00
2014,06,02,09,31,16.00
2014,06,02,09,32,16.00
2014,06,02,09,33,16.00
2014,06,02,09,34,16.00
2014,06,02,09,35,15.90
2014,06,02,09,36,16.00
2014,06,02,09,37,16.00
2014,06,02,09,38,16.10
2014,06,02,09,39,16.10
2014,06,02,09,40,16.00
2014,06,02,09,41,16.10
2014,06,02,09,42,16.10
2014,06,02,09,43,16.00
2014,06,02,09,44,15.90
2014,06,02,09,45,15.90
2014,06,02,09,46,15.90
2014,06,02,09,47,15.90
2014,06,02,09,48,16.00
2014,06,02,09,49,16.00
2014,06,02,09,50,16.00
2014,06,02,09,51,16.10
2014,06,02,09,52,16.00
2014,06,02,09,53,16.00
2014,06,02,09,54,16.10
2014,06,02,09,55,16.10
2014,06,02,09,56,16.10
2014,06,02,09,57,16.20
2014,06,02,09,58,16.30
2014,06,02,09,59,16.30
2014,06,02,10,00,16.40
2014,06,02,10,01,16.40
2014,06,02,10,02,16.40
2014,06,02,10,03,16.20
2014,06,02,10,04,16.10
2014,06,02,10,05,16.10
2014,06,02,10,06,16.10
2014,06,02,10,07,16.10
2014,06,02,10,08,16.10
2014,06,02,10,09,16.20
2014,06,02,10,10,16.30
2014,06,02,10,11,16.30
2014,06,02,10,12,16.30
2014,06,02,10,13,16.20
2014,06,02,10,14,16.20
2014,06,02,10,15,16.10
2014,06,02,10,16,16.00
2014,06,02,10,17,16.00
2014,06,02,10,18,16.00
2014,06,02,10,19,16.00
2014,06,02,10,20,16.00
2014,06,02,10,21,16.00
2014,06,02,10,22,16.00
2014,06,02,10,23,15.90
2014,06,02,10,24,15.90
2014,06,02,10,25,15.90
2014,06,02,10,26,15.90
2014,06,02,10,27,15.90
2014,06,02,10,28,16.00
2014,06,02,10,29,16.10
2014,06,02,10,30,16.20
2014,06,02,10,31,16.20
2014,06,02,10,32,16.20
2014,06,02,10,33,16.10
2014,06,02,10,34,16.10
2014,06,02,10,35,16.10
2014,06,02,10,36,16.10
2014,06,02,10,37,16.20
2014,06,02,10,38,16.30
2014,06,02,10,39,16.40
2014,06,02,10,40,16.60
2014,06,02,10,41,16.70
2014,06,02,10,42,16.70
2014,06,02,10,43,16.70
2014,06,02,10,44,16.70
2014,06,02,10,45,16.60
2014,06,02,10,46,16.40
2014,06,02,10,47,16.30
2014,06,02,10,48,16.30
2014,06,02,10,49,16.20
2014,06,02,10,50,16.20
2014,06,02,10,51,16.30
2014,06,02,10,52,16.30
2014,06,02,10,53,16.30
2014,06,02,10,54,16.30
2014,06,02,10,55,16.30
2014,06,02,10,56,16.30
2014,06,02,10,57,16.30
2014,06,02,10,58,16.40
2014,06,02,10,59,16.40
2014,06,02,11,00,16.40
2014,06,02,11,01,16.40
2014,06,02,11,02,16.40
2014,06,02,11,03,16.50
2014,06,02,11,04,16.50
2014,06,02,11,05,16.50
2014,06,02,11,06,16.50
2014,06,02,11,07,16.50
2014,06,02,11,08,16.50
2014,06,02,11,09,16.50
2014,06,02,11,10,16.60
2014,06,02,11,11,16.70
2014,06,02,11,12,16.70
2014,06,02,11,13,16.80
2014,06,02,11,14,16.80
2014,06,02,11,15,16.70
2014,06,02,11,16,16.70
2014,06,02,11,17,16.60
2014,06,02,11,18,16.50
2014,06,02,11,19,16.50
2014,06,02,11,20,16.50
2014,06,02,11,21,16.60
2014,06,02,11,22,16.70
2014,06,02,11,23,16.80
2014,06,02,11,24,16.80
2014,06,02,11,25,16.80
2014,06,02,11,26,16.80
2014,06,02,11,27,16.70
2014,06,02,11,28,16.70
2014,06,02,11,29,16.60
2014,06,02,11,30,16.60
2014,06,02,11,31,16.50
2014,06,02,11,32,16.50
2014,06,02,11,33,16.40
2014,06,02,11,34,16.30
2014,06,02,11,35,16.40
2014,06,02,11,36,16.40
2014,06,02,11,37,16.40
2014,06,02,11,38,16.30
2014,06,02,11,39,16.40
2014,06,02,11,40,16.40
2014,06,02,11,41,16.40
2014,06,02,11,42,16.40
2014,06,02,11,43,16.40
2014,06,02,11,44,16.40
2014,06,02,11,45,16.50
2014,06,02,11,46,16.60
2014,06,02,11,47,16.70
2014,06,02,11,48,16.80
2014,06,02,11,49,16.90
2014,06,02,11,50,16.90
2014,06,02,11,51,16.90
2014,06,02,11,52,16.90
2014,06,02,11,53,16.80
2014,06,02,11,54,16.90
2014,06,02,11,55,16.90
2014,06,02,11,56,17.00
2014,06,02,11,57,17.00
2014,06,02,11,58,17.00
2014,06,02,11,59,16.90
2014,06,02,12,00,16.90
2014,06,02,12,01,16.90
2014,06,02,12,02,16.90
2014,06,02,12,03,16.90
2014,06,02,12,04,16.90
2014,06,02,12,05,16.90
2014,06,02,12,06,16.90
2014,06,02,12,07,16.90
2014,06,02,12,08,16.90
2014,06,02,12,09,16.90
2014,06,02,12,10,17.00
2014,06,02,12,11,17.00
2014,06,02,12,12,17.00
2014,06,02,12,13,17.00
2014,06,02,12,14,17.00
2014,06,02,12,15,17.10
2014,06,02,12,16,17.20
2014,06,02,12,17,17.20
2014,06,02,12,18,17.30
2014,06,02,12,19,17.30
2014,06,02,12,20,17.40
2014,06,02,12,21,17.50
2014,06,02,12,22,17.50
2014,06,02,12,23,17.50
2014,06,02,12,24,17.50
2014,06,02,12,25,17.40
2014,06,02,12,26,17.50
2014,06,02,12,27,17.50
2014,06,02,12,28,17.50
2014,06,02,12,29,17.50
2014,06,02,12,30,17.60
2014,06,02,12,31,17.70
2014,06,02,12,32,17.70
2014,06,02,12,33,17.70
2014,06,02,12,34,17.70
2014,06,02,12,35,17.70
2014,06,02,12,36,17.70
2014,06,02,12,37,17.70
2014,06,02,12,38,17.70
2014,06,02,12,39,17.70
2014,06,02,12,40,17.70
2014,06,02,12,41,17.80
2014,06,02,12,42,17.90
2014,06,02,12,43,17.90
2014,06,02,12,44,17.90
2014,06,02,12,45,17.90
2014,06,02,12,46,17.90
2014,06,02,12,47,17.90
2014,06,02,12,48,17.90
2014,06,02,12,49,18.00
2014,06,02,12,50,18.10
2014,06,02,12,51,18.10
2014,06,02,12,52,18.20
2014,06,02,12,53,18.10
2014,06,02,12,54,18.10
2014,06,02,12,55,18.00
2014,06,02,12,56,18.00
2014,06,02,12,57,17.90
2014,06,02,12,58,18.00
2014,06,02,12,59,18.10
2014,06,02,13,00,18.10
2014,06,02,13,01,18.20
2014,06,02,13,02,18.20
2014,06,02,13,03,18.20
2014,06,02,13,04,18.30
2014,06,02,13,05,18.30
2014,06,02,13,06,18.20
2014,06,02,13,07,18.20
2014,06,02,13,08,18.10
2014,06,02,13,09,18.10
2014,06,02,13,10,18.00
2014,06,02,13,11,18.10
2014,06,02,13,12,18.10
2014,06,02,13,13,18.20
2014,06,02,13,14,18.20
2014,06,02,13,15,18.20
2014,06,02,13,16,18.30
2014,06,02,13,17,18.30
2014,06,02,13,18,18.40
2014,06,02,13,19,18.50
2014,06,02,13,20,18.60
2014,06,02,13,21,18.70
2014,06,02,13,22,18.70
2014,06,02,13,23,18.70
2014,06,02,13,24,18.70
2014,06,02,13,25,18.60
2014,06,02,13,26,18.60
2014,06,02,13,27,18.50
2014,06,02,13,28,18.40
2014,06,02,13,29,18.40
2014,06,02,13,30,18.40
2014,06,02,13,31,18.40
2014,06,02,13,32,18.50
2014,06,02,13,33,18.50
2014,06,02,13,34,18.40
2014,06,02,13,35,18.40
2014,06,02,13,36,18.40
2014,06,02,13,37,18.40
2014,06,02,13,38,18.40
2014,06,02,13,39,18.40
2014,06,02,13,40,18.50
2014,06,02,13,41,18.50
2014,06,02,13,42,18.60
2014,06,02,13,43,18.70
2014,06,02,13,44,18.70
2014,06,02,13,45,18.80
2014,06,02,13,46,18.90
2014,06,02,13,47,19.00
2014,06,02,13,48,19.10
2014,06,02,13,49,19.00
2014,06,02,13,50,19.00
2014,06,02,13,51,18.90
2014,06,02,13,52,18.90
2014,06,02,13,53,18.90
2014,06,02,13,54,18.80
2014,06,02,13,55,18.80
2014,06,02,13,56,18.80
2014,06,02,13,57,18.80
2014,06,02,13,58,18.90
2014,06,02,13,59,18.90
2014,06,02,14,00,19.00
2014,06,02,14,01,19.00
2014,06,02,14,02,19.00
2014,06,02,14,03,19.10
2014,06,02,14,04,19.20
2014,06,02,14,05,19.20
2014,06,02,14,06,19.30
2014,06,02,14,07,19.20
2014,06,02,14,08,19.20
2014,06,02,14,09,19.20
2014,06,02,14,10,19.20
2014,06,02,14,11,19.30
2014,06,02,14,12,19.30
2014,06,02,14,13,19.20
2014,06,02,14,14,19.20
2014,06,02,14,15,19.20
2014,06,02,14,16,19.20
2014,06,02,14,17,19.30
2014,06,02,14,18,19.30
2014,06,02,14,19,19.30
2014,06,02,14,20,19.30
2014,06,02,14,21,19.30
2014,06,02,14,22,19.40
2014,06,02,14,23,19.40
2014,06,02,14,24,19.50
2014,06,02,14,25,19.50
2014,06,02,14,26,19.40
2014,06,02,14,27,19.30
2014,06,02,14,28,19.30
2014,06,02,14,29,19.30
2014,06,02,14,30,19.30
2014,06,02,14,31,19.30
2014,06,02,14,32,19.20
2014,06,02,14,33,19.30
2014,06,02,14,34,19.30
2014,06,02,14,35,19.30
2014,06,02,14,36,19.30
2014,06,02,14,37,19.30
2014,06,02,14,38,19.30
2014,06,02,14,39,19.30
2014,06,02,14,40,19.30
2014,06,02,14,41,19.30
2014,06,02,14,42,19.30
2014,06,02,14,43,19.30
2014,06,02,14,44,19.40
2014,06,02,14,45,19.50
2014,06,02,14,46,19.60
2014,06,02,14,47,19.60
2014,06,02,14,48,19.50
2014,06,02,14,49,19.50
2014,06,02,14,50,19.50
2014,06,02,14,51,19.50
2014,06,02,14,52,19.50
2014,06,02,14,53,19.50
2014,06,02,14,54,19.60
2014,06,02,14,55,19.60
2014,06,02,14,56,19.60
2014,06,02,14,57,19.60
2014,06,02,14,58,19.70
2014,06,02,14,59,19.80
2014,06,02,15,00,19.90
2014,06,02,15,01,20.10
2014,06,02,15,02,20.20
2014,06,02,15,03,20.40
2014,06,02,15,04,20.60
2014,06,02,15,05,20.60
2014,06,02,15,06,20.70
2014,06,02,15,07,20.70
2014,06,02,15,08,20.60
2014,06,02,15,09,20.60
2014,06,02,15,10,20.70
2014,06,02,15,11,20.80
2014,06,02,15,12,20.90
2014,06,02,15,13,21.00
2014,06,02,15,14,21.10
2014,06,02,15,15,21.10
2014,06,02,15,16,21.10
2014,06,02,15,17,21.20
2014,06,02,15,18,21.20
2014,06,02,15,19,21.20
2014,06,02,15,20,21.20
2014,06,02,15,21,21.20
2014,06,02,15,22,21.30
2014,06,02,15,23,21.30
2014,06,02,15,24,21.50
2014,06,02,15,25,21.60
2014,06,02,15,26,21.70
2014,06,02,15,27,21.80
2014,06,02,15,28,21.80
2014,06,02,15,29,21.90
2014,06,02,15,30,22.00
2014,06,02,15,31,22.00
2014,06,02,15,32,21.90
2014,06,02,15,33,21.70
2014,06,02,15,34,21.60
2014,06,02,15,35,21.50
2014,06,02,15,36,21.40
2014,06,02,15,37,21.40
2014,06,02,15,38,21.30
2014,06,02,15,39,21.20
2014,06,02,15,40,21.10
2014,06,02,15,41,21.10
2014,06,02,15,42,21.00
2014,06,02,15,43,20.90
2014,06,02,15,44,20.80
2014,06,02,15,45,20.80
2014,06,02,15,46,20.80
2014,06,02,15,47,20.80
2014,06,02,15,48,20.90
2014,06,02,15,49,21.00
2014,06,02,15,50,21.10
2014,06,02,15,51,21.10
2014,06,02,15,52,21.10
2014,06,02,15,53,21.10
2014,06,02,15,54,21.10
2014,06,02,15,55,21.10
2014,06,02,15,56,21.00
2014,06,02,15,57,21.00
2014,06,02,15,58,21.00
2014,06,02,15,59,20.90
2014,06,02,16,00,21.00
2014,06,02,16,01,21.00
2014,06,02,16,02,21.00
2014,06,02,16,03,21.00
2014,06,02,16,04,21.00
2014,06,02,16,05,21.00
2014,06,02,16,06,20.90
2014,06,02,16,07,20.90
2014,06,02,16,08,21.00
2014,06,02,16,09,21.00
2014,06,02,16,10,21.10
2014,06,02,16,11,21.10
2014,06,02,16,12,21.10
2014,06,02,16,13,21.00
2014,06,02,16,14,20.90
2014,06,02,16,15,20.80
2014,06,02,16,16,20.80
2014,06,02,16,17,20.80
2014,06,02,16,18,20.80
2014,06,02,16,19,20.70
2014,06,02,16,20,20.60
2014,06,02,16,21,20.60
2014,06,02,16,22,20.60
2014,06,02,16,23,20.70
2014,06,02,16,24,20.70
2014,06,02,16,25,20.80
2014,06,02,16,26,20.80
2014,06,02,16,27,20.80
2014,06,02,16,28,20.80
2014,06,02,16,29,20.80
2014,06,02,16,30,20.70
2014,06,02,16,31,20.60
2014,06,02,16,32,20.60
2014,06,02,16,33,20.60
2014,06,02,16,34,20.60
2014,06,02,16,35,20.60
2014,06,02,16,36,20.70
2014,06,02,16,37,20.70
2014,06,02,16,38,20.70
2014,06,02,16,39,20.70
2014,06,02,16,40,20.70
2014,06,02,16,41,20.70
2014,06,02,16,42,20.70
2014,06,02,16,43,20.70
2014,06,02,16,44,20.70
2014,06,02,16,45,20.70
2014,06,02,16,46,20.70
2014,06,02,16,47,20.70
2014,06,02,16,48,20.70
2014,06,02,16,49,20.70
2014,06,02,16,50,20.70
2014,06,02,16,51,20.70
2014,06,02,16,52,20.70
2014,06,02,16,53,20.70
2014,06,02,16,54,20.80
2014,06,02,16,55,20.80
2014,06,02,16,56,20.80
2014,06,02,16,57,20.80
2014,06,02,16,58,20.70
2014,06,02,16,59,20.70
2014,06,02,17,00,20.70
2014,06,02,17,01,20.70
2014,06,02,17,02,20.70
2014,06,02,17,03,20.60
2014,06,02,17,04,20.50
2014,06,02,17,05,20.50
2014,06,02,17,06,20.40
2014,06,02,17,07,20.40
2014,06,02,17,08,20.30
2014,06,02,17,09,20.30
2014,06,02,17,10,20.30
2014,06,02,17,11,20.30
2014,06,02,17,12,20.20
2014,06,02,17,13,20.20
2014,06,02,17,14,20.20
2014,06,02,17,15,20.10
2014,06,02,17,16,20.10
2014,06,02,17,17,20.10
2014,06,02,17,18,20.10
2014,06,02,17,19,20.00
2014,06,02,17,20,20.00
2014,06,02,17,21,19.90
2014,06,02,17,22,19.90
2014,06,02,17,23,19.90
2014,06,02,17,24,19.90
2014,06,02,17,25,19.90
2014,06,02,17,26,20.00
2014,06,02,17,27,19.90
2014,06,02,17,28,19.90
2014,06,02,17,29,19.90